Location: Unspecified
(50.7693°N, 0.0000°E)
Time: 04:17:51
(UTC+00:00)

Transit 4A - Pass Details

Date: 28 June 2019
Orbit: 862 x 982 km, 66.8° (Epoch: 20 July)

Event Time Altitude Azimuth Distance (km) Brightness Sun altitude
Rises 09:58:52 0° 277° (W) 3,673 10.7 53.5°
Reaches altitude 10° 10:02:04 10° 292° (WNW) 2,736 10.1 53.9°
Maximum altitude 10:06:59 22° 342° (NNW) 1,989 9.6 54.5°
Drops below altitude 10° 10:11:55 10° 32° (NNE) 2,743 10.4 55.1°
Sets 10:15:08 0° 47° (NE) 3,684 11.1 55.5°
